This is the latest recevied weather packets stored in our database for station/object N1HRK. If no packets are shown the sender has not sent any weather packets the latest 10 day(s).
| Time | Temp. | Humidity | Pressure | Rain* | Wind** | Luminosity | Snow |
|---|---|---|---|---|---|---|---|
| 1777663922 | 16.67° C | 36% | 1008.8 hPa | 0 mm | - | - | - |
| 1777663323 | 16.67° C | 34% | 1008.8 hPa | 0 mm | - | - | - |
| 1777662724 | 17.22° C | 34% | 1008.9 hPa | 0 mm | - | - | - |
| 1777662123 | 16.67° C | 38% | 1008.8 hPa | 0 mm | - | - | - |
| 1777661523 | 16.67° C | 37% | 1008.9 hPa | 0 mm | - | - | - |
| 1777660924 | 16.67° C | 38% | 1009 hPa | 0 mm | - | - | - |
| 1777660324 | 16.11° C | 38% | 1009.2 hPa | 0 mm | - | - | - |
| 1777659723 | 16.67° C | 37% | 1009.1 hPa | 0 mm | - | - | - |
| 1777659154 | 16.11° C | 37% | 1009.2 hPa | 0 mm | - | - | - |
| 1777659123 | 16.11° C | 37% | 1009.2 hPa | 0 mm | - | - | - |
| 1777658553 | 16.11° C | 40% | 1009.2 hPa | 0 mm | - | - | - |
| 1777658522 | 16.11° C | 40% | 1009.2 hPa | 0 mm | - | - | - |
| 1777657924 | 16.11° C | 43% | 1009.4 hPa | 0 mm | - | - | - |
| 1777657324 | 16.11° C | 46% | 1009.5 hPa | 0 mm | - | - | - |
| 1777656724 | 16.11° C | 40% | 1009.6 hPa | 0 mm | - | - | - |
| 1777656123 | 15.56° C | 44% | 1009.8 hPa | 0 mm | - | - | - |
| 1777655523 | 15.56° C | 45% | 1009.7 hPa | 0 mm | - | - | - |
| 1777654923 | 15.56° C | 48% | 1009.9 hPa | 0 mm | - | - | - |
| 1777654323 | 15° C | 46% | 1009.9 hPa | 0 mm | - | - | - |
| 1777653724 | 15° C | 49% | 1010 hPa | 0 mm | - | - | - |
| 1777653123 | 14.44° C | 50% | 1010 hPa | 0 mm | - | - | - |
| 1777652523 | 13.89° C | 51% | 1010.1 hPa | 0 mm | - | - | - |
| 1777651923 | 13.89° C | 51% | 1010.2 hPa | 0 mm | - | - | - |
| 1777651323 | 14.44° C | 55% | 1010.2 hPa | 0 mm | - | - | - |
| 1777650723 | 13.33° C | 55% | 1010.3 hPa | 0 mm | - | - | - |
* Rain latest hour (hover to see other rain measurements)
** Current wind speed in m/s (hover to see current wind gust speed)